Flag for Germany Weather past 2 weeks in Münster, North Rhine-Westphalia, Germany

Now
45 °F

Passing clouds.


Feels Like: 37 °F
Forecast: 40 / 50 °F
Wind: 18 mph from West

Location: Muenster / Osnabrueck

Current Time: Mar 30, 2015 at 4:32:59 AM

Latest Report: Mar 30, 2015 at 3:50 AM


Visibility: N/A

Pressure: 29.33 "Hg

Humidity: 81%

Dew point: 39 °F

Location of MünsterLocation

Historic Weather in Münster — Graph

°F

Münster temperature yesterday

Maximum temperature yesterday: 54 °F (at 1:50 AM)
Minimum temperature yesterday: 45 °F (at 10:20 PM)
Average temperature yesterday: 50 °F

Past Weeks' High & Low Weather Summary

 TemperatureHumidityPressure
High63 °F (Mar 17, 2:20 PM)100% (Mar 17, 4:50 AM)30.39 "Hg (Mar 17, 4:50 AM)
Low28 °F (Mar 23, 4:20 AM)42% (Mar 17, 2:50 PM)29.15 "Hg (Mar 29, 6:50 PM)
Average43 °F83%30.03 "Hg
* Reported Mar 15 2:20 AM — Mar 30 3:20 AM, Münster, Weather by CustomWeather, © 2015

Note: Actual official high and low records may vary slightly from our data, if they occured in-between our weather recording intervals... More about our weather records

Advertising

Münster weather history for previous 24 hours

 ConditionsComfort  
Time TempWeatherWind HumidityBarometerVisibility
3:20 AM
Mon, Mar 30
45 °FSprinkles. Passing clouds.17 mph81%29.33 "HgN/A
2:50 AM45 °FPassing clouds.18 mph81%29.33 "HgN/A
2:20 AM45 °FPassing clouds.20 mph87%29.33 "HgN/A
1:50 AM45 °FPassing clouds.18 mph87%29.33 "HgN/A
1:20 AM45 °FPassing clouds.17 mph87%29.33 "HgN/A
12:50 AM45 °FPassing clouds.18 mph87%29.33 "HgN/A
12:20 AM45 °FPassing clouds.21 mph87%29.33 "HgN/A
11:50 PM
Sun, Mar 29
45 °FPassing clouds.22 mph87%29.30 "HgN/A
11:20 PM45 °FSprinkles. Passing clouds.21 mph87%29.30 "HgN/A
10:50 PM45 °FRain showers. Passing clouds.20 mph93%29.27 "Hg5 mi
10:20 PM45 °FSprinkles. Passing clouds.28 mph87%29.24 "HgN/A
9:50 PM48 °FSprinkles. Passing clouds.28 mph76%29.21 "HgN/A
9:20 PM48 °FPassing clouds.29 mph76%29.21 "HgN/A
8:50 PM50 °FPartly sunny.37 mph76%29.15 "HgN/A
8:20 PM52 °FSprinkles. Partly sunny.31 mph82%29.15 "HgN/A
7:50 PM52 °FPartly sunny.26 mph88%29.15 "Hg5 mi
7:20 PM52 °FSprinkles. Mostly cloudy.21 mph94%29.15 "Hg3 mi
6:50 PM52 °FLight rain. Broken clouds.22 mph94%29.15 "Hg5 mi
6:20 PM52 °FRain. Broken clouds.18 mph94%29.18 "Hg5 mi
5:50 PM52 °FRain. Broken clouds.13 mph94%29.21 "Hg5 mi
5:20 PM50 °FRain. Broken clouds.17 mph100%29.24 "Hg5 mi
4:50 PM50 °FLight rain. Broken clouds.13 mph100%29.27 "Hg5 mi
4:20 PM52 °FLight rain. Partly sunny.13 mph88%29.30 "HgN/A
3:50 PM50 °FLight rain. Partly sunny.13 mph94%29.33 "HgN/A
3:20 PM48 °FLight rain. Partly sunny.8 mph94%29.36 "HgN/A
2:20 PM50 °FLight rain. Cloudy.17 mph88%29.42 "HgN/A
1:50 PM50 °FLight rain. Cloudy.15 mph88%29.45 "HgN/A
1:20 PM50 °FLight rain. Partly sunny.17 mph88%29.47 "HgN/A
12:50 PM50 °FDrizzle. Partly sunny.14 mph88%29.50 "HgN/A
12:20 PM48 °FDrizzle. Partly sunny.15 mph94%29.50 "HgN/A
11:50 AM48 °FDrizzle. Partly sunny.10 mph94%29.53 "Hg5 mi
11:20 AM48 °FLight rain. Partly sunny.13 mph87%29.53 "Hg6 mi
10:50 AM50 °FBroken clouds.15 mph88%29.56 "HgN/A
10:20 AM48 °FBroken clouds.14 mph94%29.56 "HgN/A
9:50 AM48 °FDrizzle. Broken clouds.15 mph94%29.59 "Hg4 mi
9:20 AM48 °FLight rain. Broken clouds.15 mph94%29.59 "Hg6 mi
8:50 AM48 °FBroken clouds.15 mph94%29.59 "HgN/A
8:20 AM50 °FBroken clouds.13 mph82%29.59 "HgN/A
7:50 AM50 °FPartly cloudy.16 mph88%29.59 "HgN/A
7:20 AM50 °FPartly cloudy.16 mph88%29.59 "HgN/A
6:50 AM50 °FPartly cloudy.18 mph88%29.62 "HgN/A
6:20 AM50 °FLight rain. Passing clouds.20 mph88%29.62 "HgN/A
5:20 AM50 °FLight rain. Partly cloudy.18 mph88%29.62 "HgN/A
4:50 AM52 °FPassing clouds.18 mph88%29.62 "HgN/A
4:20 AM52 °FPartly cloudy.17 mph88%29.62 "HgN/A
Weather by CustomWeather, © 2015

See weather overviewHow to use our weather pages